Teesside, United Kingdom

3:45 AM BST on June 20, 2018 (GMT +0100)
Teesside

Weather History for EGNV - September, 2016

Change the Weather History Date:

Thursday, September 1, 2016

  Actual Average Record
Temperature  
Mean Temperature 57 °F -  
Max Temperature 66 °F 62 °F 75 °F (1999)
Min Temperature 48 °F 47 °F 39 °F (2002)
Degree Days  
Heating Degree Days 8    
Growing Degree Days 7 (Base 50)    
Moisture  
Dew Point 49 °F    
Average Humidity 68    
Maximum Humidity 94    
Minimum Humidity 56    
Precipitation  
Precipitation 0.00 in - - ()
Sea Level Pressure  
Sea Level Pressure 30.11 in    
Wind  
Wind Speed 9 mph ()    
Max Wind Speed 20 mph    
Max Gust Speed -    
Visibility 6.2 miles    
Events Rain    
Averages and records for this station are not official NWS values.
T = Trace of Precipitation, MM = Missing Value Source: Averaged Metar Reports

Daily Weather History Graph

Daily Weather History Graph

Search for Another Location

Airport or City:

Astronomy

Sep. 01, 2016 Rise Set
Actual Time 6:13 AM BST 7:56 PM BST
Civil Twilight 5:35 AM BST 8:33 PM BST
Nautical Twilight 4:48 AM BST 9:20 PM BST
Astronomical Twilight 3:55 AM BST 10:13 PM BST
Moon 6:10 AM BST (9/1) 7:58 PM BST (9/1)
Length of Visible Light 14h 58m
Length of Day
13h 42m
New Moon, 0% of the Moon is Illuminated
Sep 1
New Moon
Sep 9
First Quarter
Sep 16
Full
Sep 23
Last Quarter
Oct 1
New

Hourly Weather History & Observations

Time (BST) Temp. Dew Point Humidity Pressure Visibility Wind Dir Wind Speed Gust Speed Precip Events Conditions
5:50 AM 48.2 °F 44.6 °F 87% 30.12 in 6.2 mi South 3.5 mph - N/A   Partly Cloudy
6:20 AM 48.2 °F 46.4 °F 93% 30.15 in 6.2 mi South 3.5 mph - N/A   Partly Cloudy
6:50 AM 48.2 °F 46.4 °F 93% 30.15 in 6.2 mi SSW 5.8 mph - N/A   Partly Cloudy
7:20 AM 50.0 °F 48.2 °F 94% 30.15 in 6.2 mi SSW 5.8 mph - N/A   Partly Cloudy
7:50 AM 53.6 °F 50.0 °F 88% 30.15 in 6.2 mi South 5.8 mph - N/A   Partly Cloudy
8:20 AM 55.4 °F 50.0 °F 82% 30.15 in 6.2 mi SW 8.1 mph - N/A   Partly Cloudy
8:50 AM 57.2 °F 50.0 °F 77% 30.15 in 6.2 mi SW 6.9 mph - N/A   Partly Cloudy
9:20 AM 59.0 °F 50.0 °F 72% 30.15 in 6.2 mi SW 9.2 mph - N/A   Partly Cloudy
9:50 AM 60.8 °F 50.0 °F 68% 30.15 in 6.2 mi SW 12.7 mph - N/A   Partly Cloudy
10:20 AM 60.8 °F 50.0 °F 68% 30.15 in 6.2 mi SW 10.4 mph - N/A   Partly Cloudy
10:50 AM 60.8 °F 48.2 °F 63% 30.15 in 6.2 mi SSW 11.5 mph - N/A   Partly Cloudy
11:20 AM 60.8 °F 50.0 °F 68% 30.15 in 6.2 mi SW 10.4 mph - N/A   Partly Cloudy
11:50 AM 62.6 °F 50.0 °F 63% 30.15 in 6.2 mi SSW 13.8 mph - N/A   Partly Cloudy
12:20 PM 64.4 °F 48.2 °F 56% 30.15 in 6.2 mi WSW 11.5 mph - N/A   Scattered Clouds
12:50 PM 64.4 °F 50.0 °F 59% 30.12 in 6.2 mi WSW 16.1 mph - N/A   Scattered Clouds
1:20 PM 64.4 °F 48.2 °F 56% 30.12 in 6.2 mi WSW 17.3 mph - N/A   Partly Cloudy
1:50 PM 64.4 °F 48.2 °F 56% 30.12 in 6.2 mi SW 13.8 mph - N/A   Partly Cloudy
2:20 PM 66.2 °F 50.0 °F 56% 30.12 in 6.2 mi SW 16.1 mph - N/A   Partly Cloudy
2:50 PM 64.4 °F 48.2 °F 56% 30.09 in 6.2 mi SW 16.1 mph - N/A   Partly Cloudy
3:20 PM 64.4 °F 48.2 °F 56% 30.09 in 6.2 mi SW 19.6 mph - N/A Rain Light Rain Showers
3:50 PM 64.4 °F 50.0 °F 59% 30.09 in 6.2 mi WSW 12.7 mph - N/A   Partly Cloudy
4:20 PM 64.4 °F 50.0 °F 59% 30.09 in 6.2 mi SW 13.8 mph - N/A   Partly Cloudy
4:50 PM 62.6 °F 48.2 °F 59% 30.06 in 6.2 mi SW 10.4 mph - N/A   Partly Cloudy
5:20 PM 62.6 °F 48.2 °F 59% 30.09 in 6.2 mi SW 13.8 mph - N/A   Partly Cloudy
5:50 PM 62.6 °F 50.0 °F 63% 30.09 in 6.2 mi WSW 13.8 mph - N/A   Partly Cloudy
6:20 PM 62.6 °F 50.0 °F 63% 30.06 in 6.2 mi SW 13.8 mph - N/A   Scattered Clouds
6:50 PM 62.6 °F 48.2 °F 59% 30.06 in 6.2 mi SW 12.7 mph - N/A   Scattered Clouds
7:50 PM 60.8 °F 50.0 °F 68% 30.06 in 6.2 mi SSW 11.5 mph - N/A   Partly Cloudy
8:20 PM 60.8 °F 50.0 °F 68% 30.04 in 6.2 mi SW 10.4 mph - N/A   Partly Cloudy
9:20 PM 59.0 °F 50.0 °F 72% 30.04 in 6.2 mi SSW 10.4 mph - N/A   Scattered Clouds